Regional Weather Roundup
Issued by NWS

Home | Current Version | Previous Version | Graphics & Text | Print | Product List | Glossary On
Versions: 1 2 3 4 5 6 7 8 9 10 11 12 13 14 15 16 17 18 19 20 21 22 23 24 25 26 27
000
ASUS45 KPSR 250610
RWRAZ

ARIZONA HOURLY REGIONAL WEATHER ROUNDUP
NATIONAL WEATHER SERVICE PHOENIX AZ
1100 PM MST TUE MAY 24 2016

NOTE: FAIR INDICATES FEW OR NO CLOUDS BELOW 12,000 FEET WITH NO
SIGNIFICANT WEATHER AND/OR OBSTRUCTIONS TO VISIBILITY.

AZZ001>003-036-250700-
NORTHWEST ARIZONA

CITY           SKY/WX    TMP DP  RH WIND       PRES   REMARKS
BULLHEAD CITY  CLEAR     77  27  15 SE20      29.87R
KINGMAN        CLEAR     57  23  26 SW10      29.97S
$$

AZZ004>008-015-016-018-250700-
NORTH CENTRAL ARIZONA

CITY           SKY/WX    TMP DP  RH WIND       PRES   REMARKS
GRAND CANYON   MOCLDY    40  18  41 SW5       30.11R
6HR MIN TEMP:  40; 6HR MAX TEMP:  65;

WILLIAMS       MOCLDY    50  16  25 S13G18    30.19S
PRESCOTT       PTCLDY    56  18  22 SE5       30.07R
6HR MIN TEMP:  56; 6HR MAX TEMP:  70;

FLAGSTAFF      PTCLDY    49  15  25 SW13G21   30.13S
6HR MIN TEMP:  47; 6HR MAX TEMP:  59;

PAYSON         CLEAR     57  25  28 W5        30.11R
PAGE           CLEAR     64  22  20 W6        29.98R
6HR MIN TEMP:  64; 6HR MAX TEMP:  77;

$$

AZZ009>014-017-250700-
NORTHEAST ARIZONA

CITY           SKY/WX    TMP DP  RH WIND       PRES   REMARKS
WINSLOW        CLEAR     54  23  30 S3        30.05S
6HR MIN TEMP:  54; 6HR MAX TEMP:  75;

SAINT JOHNS    CLEAR     57  15  19 W6        30.10R
6HR MIN TEMP:  55; 6HR MAX TEMP:  74;

WINDOW ROCK    CLEAR     53  10  18 CALM      30.14R
6HR MIN TEMP:  48; 6HR MAX TEMP:  70;

SHOW LOW       CLEAR     50  16  25 SW9       30.13S
$$

AZZ023-250700-
GREATER PHOENIX AREA

CITY           SKY/WX    TMP DP  RH WIND       PRES   REMARKS
PHOENIX        CLEAR     75  26  16 SW6       29.90R
6HR MIN TEMP:  75; 6HR MAX TEMP:  89;

BUCKEYE        CLEAR     70  19  14 W5        29.92S
LUKE AFB       CLEAR     73  23  15 E5        29.89S
6HR MIN TEMP:  73; 6HR MAX TEMP:  88; 6HR PCP: TRACE;

DEER VALLEY    CLEAR     71  18  13 CALM      29.91S
6HR MIN TEMP:  71; 6HR MAX TEMP:  86;

SCOTTSDALE     CLEAR     75  19  12 NW3       29.93R
6HR MIN TEMP:  75; 6HR MAX TEMP:  86;

MESA-GATEWAY   CLEAR     72  27  18 CALM      29.92S
$$

AZZ027-028-250700-
SOUTHWEST MARICOPA COUNTY AND PINAL COUNTY

CITY           SKY/WX    TMP DP  RH WIND       PRES   REMARKS
CASA GRANDE    CLEAR     72  28  20 W7        29.93F
6HR MIN TEMP:  72; 6HR MAX TEMP:  88;

GILA BEND      CLEAR     69  21  16 S6        29.90S
6HR MIN TEMP:  69; 6HR MAX TEMP:  88;

$$

AZZ503-504-507>509-250700-
SOUTHEAST ARIZONA

CITY           SKY/WX    TMP DP  RH WIND       PRES   REMARKS
TUCSON         CLEAR     72  34  24 SW5       30.01R
6HR MIN TEMP:  72; 6HR MAX TEMP:  88;

DAVIS-MONTHAN  CLEAR     71  33  24 SW5       30.00R
6HR MIN TEMP:  71; 6HR MAX TEMP:  87;

NOGALES        CLEAR     64  31  28 S6        30.07S
6HR MIN TEMP:  62; 6HR MAX TEMP:  83;

SIERRA VISTA   CLEAR     67  13  12 S12       30.12R
6HR MIN TEMP:  65; 6HR MAX TEMP:  80;

DOUGLAS        CLEAR     66  21  18 SW8       30.09R
6HR MIN TEMP:  65; 6HR MAX TEMP:  85;

SAFFORD        CLEAR     71  21  15 NW14      29.97R
6HR MIN TEMP:  71; 6HR MAX TEMP:  90;

$$

AZZ020-021-025-026-031-250700-
SOUTHWEST ARIZONA

CITY           SKY/WX    TMP DP  RH WIND       PRES   REMARKS
YUMA           PTCLDY    69  43  38 NW6       29.91R
6HR MIN TEMP:  69; 6HR MAX TEMP:  85;

$$

CAZ031-033-041-043-047-048-061-250700-
SOUTHERN CALIFORNIA

CITY           SKY/WX    TMP DP  RH WIND       PRES   REMARKS
DOWNTOWN L.A.  CLEAR     60  51  72 CALM      30.05S
6HR MIN TEMP:  60; 6HR MAX TEMP:  68;

L.A. AIRPORT   MOCLDY    60  50  69 W10       30.06R
6HR MIN TEMP:  60; 6HR MAX TEMP:  65;

SAN DIEGO      MOCLDY    64  53  67 W6        30.08S
6HR MIN TEMP:  64; 6HR MAX TEMP:  68;

BURBANK        PTCLDY    57  50  77 S5        30.05R
6HR MIN TEMP:  56; 6HR MAX TEMP:  68;

ONTARIO        MOCLDY    58  50  75 SW10      30.05R
6HR MIN TEMP:  58; 6HR MAX TEMP:  69;

RIVERSIDE      CLOUDY    58  50  75 W5        30.05R
6HR MIN TEMP:  58; 6HR MAX TEMP:  72;

PALM SPRINGS   CLEAR     70  42  36 NW16      29.91R
EL CENTRO NAS  PTCLDY    66  39  37 W17       29.92S
6HR MIN TEMP:  66; 6HR MAX TEMP:  82;

IMPERIAL       CLEAR     67  42  40 W15       29.89S
6HR MIN TEMP:  67; 6HR MAX TEMP:  82;

BLYTHE         CLEAR     70  43  37 SW13      29.89R
6HR MIN TEMP:  70; 6HR MAX TEMP:  85;

NEEDLES        CLEAR     76  33  21 SW14      29.86R
6HR MIN TEMP:  76; 6HR MAX TEMP:  88;

$$

NVZ020-UTZ003-250700-
SOUTHERN NEVADA-UTAH

CITY           SKY/WX    TMP DP  RH WIND       PRES   REMARKS
LAS VEGAS      PTCLDY    70  32  24 SW8       29.86R
6HR MIN TEMP:  70; 6HR MAX TEMP:  79;

SALT LAKE CITY PTCLDY    57  40  52 S10       29.94R
6HR MIN TEMP:  56; 6HR MAX TEMP:  63; 6HR PCP: TRACE;

$$

NMZ009-TXZ055-250700-
NEW MEXICO-WEST TEXAS

CITY           SKY/WX    TMP DP  RH WIND       PRES   REMARKS
ALBUQUERQUE    CLEAR     65  12  12 CALM      30.06R
6HR MIN TEMP:  61; 6HR MAX TEMP:  83;

EL PASO        PTCLDY    80  16   9 W23G30    30.00R
6HR MIN TEMP:  79; 6HR MAX TEMP:  90;

$$


........................KEY........................
SKY/WX - SKY CONDITION/WEATHER
TMP    - TEMPERATURE IN FAHRENHEIT
DP     - DEW POINT IN FAHRENHEIT
RH     - RELATIVE HUMIDITY IN PERCENT
WIND   - DIRECTION AND SPEED IN MILES PER HOUR (MPH)
VRB    - VARIABLE WIND DIRECTION
PRES   - MEAN SEA LEVEL PRESSURE IN INCHES OF MERCURY
         F - FALLING PRESSURE   R - RISING PRESSURE
         S - STEADY PRESSURE
VSB    - VISIBILITY IN MILES
HX     - HEAT INDEX IN FAHRENHEIT
WCI    - WIND CHILL INDEX IN FAHRENHEIT
TC     - TEMPERATURE IN CELSIUS WHICH IS ALSO KNOWN AS
         TEMPERATURE IN CENTIGRADE
AFB    - AIR FORCE BASE
         LUKE AFB IS LUKE AIR FORCE BASE
         DAVIS-MONTHAN IS DAVIS-MONTHAN AIR FORCE BASE
NAS    - NAVAL AIR STATION
         EL CENTRO NAS IS EL CENTRO NAVAL AIR STATION
N/A    - NOT AVAILABLE





USA.gov is the U.S. government's official web portal to all federal, state and local government web resources and services.